Location: Arboyeti
(42.1122°N, 44.6017°E)
Time: 19:17:12
(UTC+00:00)

SL-8 R/B - Pass Details

Date: 19 April 2021
Orbit: 657 x 667 km, 48.4° (Epoch: 18 May)

Event Time Altitude Azimuth Distance (km) Brightness Sun altitude
Rises 16:51:57 0° 296° (WNW) 3,005 9.3 -11.9°
Reaches altitude 10° 16:54:20 10° 300° (WNW) 2,091 7.8 -12.3°
Maximum altitude 16:59:08 64° 22° (NNE) 739 3.9 -13.1°
Enters shadow 17:02:30 19° 100° (E) 1,557 5.0 -13.6°
